Tracking 19283 objects as of 17-Nov-2018
HD Live streaming from Space Station
objects crossing your sky now

EXPRESS 2

Track EXPRESS 2 now!
EXPRESS 2 is classified as:


NORAD ID: 24435
Int'l Code: 1996-058A
Perigee: 35,746.6 km
Apogee: 35,843.0 km
Inclination: 14.5 °
Period: 1,436.2 minutes
Semi major axis: 42165 km
RCS: 10 m2 (large)
Launch date: September 26, 1996
Source: Commonwealth of Independent States (former USSR) (CIS)
Launch site: TYURATAM MISSILE AND SPACE COMPLEX (TTMTR)
aabbcc
Your satellite tracking list
Your tracking list is empty




NASA's NSSDC Master Catalog

Two Line Element Set (TLE):
1 24435U 96058A   18320.24880015 +.00000107 +00000-0 +00000-0 0  9996
2 24435 014.5160 017.2423 0011432 290.7917 243.3770 01.00267858081037
Source of the keplerian elements: AFSPC